Regional Weather Roundup
Issued by NWS Little Rock, AR

Home | Current Version | Previous Version | Text Only | Print | Product List | Glossary On
Versions: 1 2 3 4 5 6 7 8 9 10 11 12 13 14 15 16 17 18 19 20 21 22 23 24 25 26 27 28 29 30 31 32 33 34 35 36 37 38 39 40 41 42 43 44 45 46 47 48 49 50
000
ASUS44 KLZK 300205
RWRLZK

WEATHER ROUNDUP FOR ARKANSAS
NATIONAL WEATHER SERVICE LITTLE ROCK AR
900 PM CDT WED JUL 29 2015

NOTE: "FAIR" INDICATES FEW OR NO CLOUDS BELOW 12,000 FEET WITH NO
SIGNIFICANT WEATHER AND/OR OBSTRUCTIONS TO VISIBILITY.

ARZ001-003-010-029-300300-
NORTHWEST ARKANSAS

CITY           SKY/WX    TMP DP  RH WIND       PRES   REMARKS
FAYETTEVILLE   CLEAR     80  77  90 CALM      30.08R HX  87
FORT SMITH     CLEAR     89  72  56 CALM      30.01R HX  96
HARRISON       CLEAR     80  75  84 N10       30.11R HX  85
BENTONVILLE    CLEAR     82  73  74 NE9       30.11R HX  88
ROGERS         CLEAR     82  74  76 NE10      30.11R HX  88
SILOAM SPGS    CLEAR     82  72  69 CALM      30.07R HX  87
HIGHFILL       PTCLDY    84  77  79 N9        30.09R HX  94
SPRINGDALE     MOCLDY    88  72  58 CALM      30.10R HX  94
$$

ARZ004-005-016-300300-
NORTH CENTRAL ARKANSAS

CITY           SKY/WX    TMP DP  RH WIND       PRES   REMARKS
BATESVILLE     CLEAR     84  79  84 W3        30.02R HX  96
FLIPPIN        CLEAR     84  72  65 NE7       30.06R HX  89
MTN HOME       MOCLDY    82  73  74 VRB5      30.07R HX  87
$$

ARZ040-041-300300-
WEST CENTRAL ARKANSAS

CITY           SKY/WX    TMP DP  RH WIND       PRES   REMARKS
MENA           MOCLDY    90  70  51 CALM      30.05R HX  95
MOUNT IDA      MOCLDY    88  72  58 CALM      30.01R HX  94
$$

ARZ009-017-025-026-028-300300-
NORTHEAST ARKANSAS

CITY           SKY/WX    TMP DP  RH WIND       PRES   REMARKS
JONESBORO      PTCLDY    86  78  77 N6        30.00R HX  98
NEWPORT        CLEAR     89  78  70 NW5       30.01R HX 102
WALNUT RIDGE   PTCLDY    82  72  69 N8        30.02R HX  87
BLYTHEVILLE    PTCLDY    84  73  69 NE13      30.01R THUNDER HX  90
$$

ARZ022-023-033-042-044-300300-
CENTRAL ARKANSAS

CITY           SKY/WX    TMP DP  RH WIND       PRES   REMARKS
LITTLE ROCK    MOCLDY    91  75  59 E5        30.00R HX 101
N LITTLE ROCK  MOCLDY    87  75  66 E9        30.00R HX  97
JACKSONVILLE   PTCLDY    82  75  78 VRB2      30.01R HX  89
SEARCY         CLEAR     84  78  82 CALM      30.02R HX  95
HOT SPRINGS    MOCLDY    92  71  50 CALM      30.01R HX  98
RUSSELLVILLE   CLEAR     84  74  71 CALM      30.01R HX  91
CLINTON        LGT RAIN  82  81  94 CALM      30.04R HX  95
$$

ARZ036-300300-
EAST ARKANSAS

CITY           SKY/WX    TMP DP  RH WIND       PRES   REMARKS
WEST MEMPHIS   CLEAR     83  80  91 CALM      29.98R HX  95
$$

ARZ050-053-066-070-073-300300-
SOUTHWEST ARKANSAS

CITY           SKY/WX    TMP DP  RH WIND       PRES   REMARKS
ARKADELPHIA    FAIR      87  78  74 CALM      29.99R HX  99
CAMDEN         CLEAR     82  75  78 CALM      29.99R HX  89
TEXARKANA      CLEAR     86  73  65 CALM      30.00R HX  93
EL DORADO      CLEAR     84  75  74 CALM      30.00R HX  92
DE QUEEN       CLEAR     84  77  79 CALM      29.98R HX  94
$$

ARZ056-057-069-300300-
SOUTHEAST ARKANSAS

CITY           SKY/WX    TMP DP  RH WIND       PRES   REMARKS
PINE BLUFF     CLEAR     88  77  69 CALM      29.99R HX 100
STUTTGART      CLEAR     90  75  62 NW5       30.00R HX 100
MONTICELLO     CLEAR     87  79  76 CALM      29.99R HX 101

$$





USA.gov is the U.S. government's official web portal to all federal, state and local government web resources and services.